Weather History for Cheyenne, WY

Change the Weather History Date:

Tuesday, October 2, 2012

  Actual Average Record
Temperature  
Mean Temperature 63 °F 51 °F  
Max Temperature 79 °F 64 °F 82 °F (1992)
Min Temperature 47 °F 38 °F 25 °F (1959)
Degree Days  
Heating Degree Days 2 14  
Month to date heating degree days 14 28  
Since 1 July heating degree days 184 309  
Cooling Degree Days 0 0  
Month to date cooling degree days 0 0  
Year to date cooling degree days 568 348  
Growing Degree Days 15 (Base 50)    
Moisture  
Dew Point 26 °F    
Average Humidity 33    
Maximum Humidity 56    
Minimum Humidity 9    
Precipitation  
Precipitation 0.00 in 0.04 in 0.40 in (1930)
Month to date precipitation 0.01 0.08  
Year to date precipitation 8.44 14.01  
Snow  
Snow 0.00 in 0.10 in 1.20 in (1959)
Month to date snowfall 0.0 0.2  
Since 1 July snowfall 0.0 1.5  
Snow Depth 0.00 in    
Sea Level Pressure  
Sea Level Pressure 29.84 in    
Wind  
Wind Speed 13 mph (West)    
Max Wind Speed 28 mph    
Max Gust Speed 35 mph    
Visibility 10 miles    
Events Rain    
T = Trace of Precipitation, MM = Missing Value Source: NWS Daily Summary

Daily Weather History Graph

Daily Weather History Graph

Search for Another Location

Airport:

Trip Planner

Search our weather history database for the weather conditions in past years. The results will help you decide how hot, cold, wet, or windy it might be!

Date:

Astronomy

Oct. 02, 2012 Rise Set
Actual Time 6:57 AM MDT 6:38 PM MDT
Civil Twilight 6:30 AM MDT 7:06 PM MDT
Nautical Twilight 5:58 AM MDT 7:37 PM MDT
Astronomical Twilight 5:25 AM MDT 8:10 PM MDT
Moon 7:51 PM MDT (10/2) 9:28 AM MDT (10/2)
Length of Visible Light 12h 35m
Length of Day
11h 41m
Waning Gibbous, 94% of the Moon is Illuminated
Oct 2
Waning Gibbous
Oct 8
Last Quarter
Oct 15
New
Oct 21
First Quarter
Oct 29
Full

Hourly Weather History & Observations

Time (MDT) Temp. Dew Point Humidity Pressure Visibility Wind Dir Wind Speed Gust Speed Precip Events Conditions
12:53 AM 46.9 °F 30.9 °F 54% 30.01 in 10.0 mi SW 11.5 mph - N/A   Clear
1:53 AM 48.9 °F 30.9 °F 50% 29.98 in 10.0 mi SW 13.8 mph - 0.00 in Rain Light Rain
2:53 AM 48.0 °F 33.1 °F 56% 29.95 in 10.0 mi SW 11.5 mph - 0.00 in   Clear
3:53 AM 48.0 °F 33.1 °F 56% 29.93 in 10.0 mi SW 12.7 mph - N/A   Clear
4:53 AM 50.0 °F 32.0 °F 50% 29.90 in 10.0 mi WSW 11.5 mph - N/A   Clear
5:53 AM 53.6 °F 30.2 °F 41% 30.06 in 10.0 mi West 19.6 mph - N/A   Clear
6:53 AM 54.0 °F 28.9 °F 38% 29.88 in 10.0 mi West 18.4 mph - N/A   Clear
7:53 AM 55.9 °F 30.0 °F 37% 29.91 in 10.0 mi West 11.5 mph - N/A   Clear
8:53 AM 61.0 °F 30.0 °F 31% 29.89 in 10.0 mi West 10.4 mph - N/A   Clear
9:53 AM 66.9 °F 27.0 °F 22% 29.87 in 10.0 mi West 23.0 mph 26.5 mph N/A   Clear
10:53 AM 71.1 °F 21.9 °F 16% 29.85 in 10.0 mi WNW 25.3 mph 34.5 mph N/A   Clear
11:53 AM 73.0 °F 23.0 °F 15% 29.83 in 10.0 mi WNW 17.3 mph 26.5 mph N/A   Clear
12:53 PM 75.0 °F 19.0 °F 12% 29.80 in 10.0 mi WNW 13.8 mph 21.9 mph N/A   Clear
1:53 PM 77.0 °F 21.9 °F 13% 29.76 in 10.0 mi WNW 13.8 mph 19.6 mph N/A   Clear
2:53 PM 78.1 °F 15.1 °F 9% 29.74 in 10.0 mi West 10.4 mph 24.2 mph N/A   Clear
3:53 PM 79.0 °F 15.1 °F 9% 29.72 in 10.0 mi NW 6.9 mph - N/A   Clear
4:53 PM 77.0 °F 14.0 °F 9% 29.71 in 10.0 mi NW 8.1 mph 20.7 mph N/A   Clear
5:53 PM 75.2 °F 17.6 °F 11% 29.94 in 10.0 mi WNW 11.5 mph - N/A   Clear
6:53 PM 69.1 °F 21.9 °F 17% 29.74 in 10.0 mi West 12.7 mph - N/A   Clear
7:53 PM 59.0 °F 27.0 °F 29% 29.78 in 10.0 mi SW 8.1 mph - N/A   Clear
8:53 PM 55.0 °F 28.0 °F 35% 29.78 in 10.0 mi West 10.4 mph - N/A   Clear
9:53 PM 55.9 °F 28.0 °F 34% 29.75 in 10.0 mi West 9.2 mph - N/A   Clear
10:53 PM 53.1 °F 30.0 °F 41% 29.76 in 10.0 mi West 11.5 mph - N/A   Clear
11:53 PM 51.1 °F 28.9 °F 43% 29.75 in 10.0 mi WSW 10.4 mph - N/A   Clear